Change the Weather History Date:

Thursday, March 7, 2013

  Actual Average Record
Temperature  
Mean Temperature 14 °F -  
Max Temperature 35 °F 25 °F 37 °F (2012)
Min Temperature -7 °F 4 °F -25 °F (2008)
Degree Days  
Heating Degree Days 51    
Moisture  
Dew Point 4 °F    
Average Humidity 70    
Maximum Humidity 92    
Minimum Humidity 35    
Precipitation  
Precipitation 0.00 in - - ()
Sea Level Pressure  
Sea Level Pressure 30.31 in    
Wind  
Wind Speed 1 mph (SE)    
Max Wind Speed 10 mph    
Max Gust Speed -    
Visibility 10 miles    
Events      
Averages and records for this station are not official NWS values.
T = Trace of Precipitation, MM = Missing Value Source: NWS Daily Summary

Daily Weather History Graph

Daily Weather History Graph

Search for Another Location

Airport or City:

Trip Planner

Search our weather history database for the weather conditions in past years. The results will help you decide how hot, cold, wet, or windy it might be!

Date:

Astronomy

Mar. 07, 2013 Rise Set
Actual Time 6:35 AM CST 6:01 PM CST
Civil Twilight 6:05 AM CST 6:32 PM CST
Nautical Twilight 5:29 AM CST 7:08 PM CST
Astronomical Twilight 4:53 AM CST 7:44 PM CST
Moon 3:51 AM CST 1:34 PM CST
Length of Visible Light 12h 27m
Length of Day
11h 25m
Waning Crescent, 20% of the Moon is Illuminated
Mar 7
Waning Crescent
Mar 11
New
Mar 19
First Quarter
Mar 27
Full
Apr 2
Last Quarter

Hourly Weather History & Observations

Time (CST) Temp. Windchill Dew Point Humidity Pressure Visibility Wind Dir Wind Speed Gust Speed Precip Events Conditions
12:13 AM 6.8 °F - 3.2 °F 85% 30.30 in 10.0 mi Calm Calm - N/A   Scattered Clouds
12:33 AM 5.0 °F - 1.4 °F 85% 30.29 in 10.0 mi Calm Calm - N/A   Clear
12:53 AM 3.2 °F - -0.4 °F 85% 30.30 in 10.0 mi Calm Calm - N/A   Clear
1:13 AM 1.4 °F - -0.4 °F 92% 30.30 in 10.0 mi Calm Calm - N/A   Clear
1:33 AM 1.4 °F - -2.2 °F 85% 30.31 in 10.0 mi Calm Calm - N/A   Clear
1:52 AM -0.4 °F - -2.2 °F 92% 30.32 in 10.0 mi Calm Calm - N/A   Clear
2:13 AM 1.4 °F - -2.2 °F 85% 30.32 in 10.0 mi Calm Calm - N/A   Clear
2:33 AM -0.4 °F - -5.8 °F 78% 30.31 in 10.0 mi Calm Calm - N/A   Clear
2:52 AM -2.2 °F - -5.8 °F 85% 30.30 in 10.0 mi Calm Calm - N/A   Clear
3:13 AM -2.2 °F - -5.8 °F 85% 30.31 in 10.0 mi Calm Calm - N/A   Clear
3:33 AM -2.2 °F - -5.8 °F 85% 30.32 in 10.0 mi Calm Calm - N/A   Clear
3:53 AM -2.2 °F - -5.8 °F 85% 30.32 in 10.0 mi Calm Calm - N/A   Clear
4:13 AM -4.0 °F - -7.6 °F 85% 30.33 in 10.0 mi Calm Calm - N/A   Clear
4:32 AM -5.8 °F - -9.4 °F 84% 30.33 in 10.0 mi Calm Calm - N/A   Clear
4:53 AM -5.8 °F - -9.4 °F 84% 30.34 in 10.0 mi Calm Calm - N/A   Clear
5:13 AM -7.6 °F - -11.2 °F 84% 30.33 in 10.0 mi Calm Calm - N/A   Clear
5:33 AM -5.8 °F - -9.4 °F 84% 30.33 in 10.0 mi Calm Calm - N/A   Clear
5:52 AM -7.6 °F - -11.2 °F 84% 30.34 in 10.0 mi Calm Calm - N/A   Clear
6:13 AM -7.6 °F - -11.2 °F 84% 30.34 in 10.0 mi Calm Calm - N/A   Clear
6:33 AM -7.6 °F - -11.2 °F 84% 30.34 in 10.0 mi Calm Calm - N/A   Clear
6:52 AM -7.6 °F - -11.2 °F 84% 30.34 in 10.0 mi Calm Calm - N/A   Clear
7:13 AM -7.6 °F - -11.2 °F 84% 30.35 in 10.0 mi Calm Calm - N/A   Clear
7:33 AM -5.8 °F - -9.4 °F 84% 30.35 in 10.0 mi Calm Calm - N/A   Clear
7:52 AM -2.2 °F - -5.8 °F 85% 30.34 in 10.0 mi Calm Calm - N/A   Clear
8:13 AM -0.4 °F - -4.0 °F 85% 30.34 in 10.0 mi Calm Calm - N/A   Clear
8:33 AM 5.0 °F - 1.4 °F 85% 30.35 in 10.0 mi Calm Calm - N/A   Clear
8:52 AM 8.6 °F - 5.0 °F 85% 30.35 in 10.0 mi Calm Calm - N/A   Clear
9:13 AM 12.2 °F - 8.6 °F 85% 30.35 in 10.0 mi Calm Calm - N/A   Clear
9:33 AM 15.8 °F - 8.6 °F 73% 30.35 in 10.0 mi Calm Calm - N/A   Clear
9:52 AM 17.6 °F - 8.6 °F 68% 30.35 in 10.0 mi Calm Calm - N/A   Clear
10:13 AM 19.4 °F - 8.6 °F 63% 30.35 in 10.0 mi Calm Calm - N/A   Clear
10:33 AM 19.4 °F 14.3 °F 8.6 °F 63% 30.34 in 10.0 mi East 3.5 mph - N/A   Clear
10:52 AM 21.2 °F - 8.6 °F 58% 30.34 in 10.0 mi Calm Calm - N/A   Clear
11:13 AM 21.2 °F - 8.6 °F 58% 30.34 in 10.0 mi Calm Calm - N/A   Clear
11:33 AM 24.8 °F - 8.6 °F 50% 30.34 in 10.0 mi Calm Calm - N/A   Clear
11:52 AM 24.8 °F - 8.6 °F 50% 30.34 in 10.0 mi Calm Calm - N/A   Clear
12:13 PM 26.6 °F 22.6 °F 10.4 °F 51% 30.33 in 10.0 mi ESE 3.5 mph - N/A   Clear
12:33 PM 26.6 °F - 10.4 °F 51% 30.33 in 10.0 mi Calm Calm - N/A   Clear
12:52 PM 28.4 °F - 10.4 °F 47% 30.32 in 10.0 mi Calm Calm - N/A   Clear
1:13 PM 28.4 °F - 10.4 °F 47% 30.31 in 10.0 mi Calm Calm - N/A   Clear
1:33 PM 30.2 °F 23.4 °F 10.4 °F 44% 30.30 in 10.0 mi ESE 6.9 mph - N/A   Clear
1:52 PM 30.2 °F - 10.4 °F 44% 30.30 in 10.0 mi Calm Calm - N/A   Clear
2:13 PM 32.0 °F - 10.4 °F 41% 30.29 in 10.0 mi Calm Calm - N/A   Clear
2:33 PM 32.0 °F 27.5 °F 10.4 °F 41% 30.28 in 10.0 mi ESE 4.6 mph - N/A   Clear
2:52 PM 33.8 °F 30.8 °F 10.4 °F 38% 30.28 in 10.0 mi WNW 3.5 mph - N/A   Clear
3:13 PM 33.8 °F - 10.4 °F 38% 30.28 in 10.0 mi Calm Calm - N/A   Clear
3:33 PM 33.8 °F - 10.4 °F 38% 30.27 in 10.0 mi Calm Calm - N/A   Clear
3:52 PM 35.6 °F - 10.4 °F 35% 30.27 in 10.0 mi Calm Calm - N/A   Clear
4:13 PM 33.8 °F 29.6 °F 12.2 °F 41% 30.26 in 10.0 mi SSE 4.6 mph - N/A   Clear
4:33 PM 33.8 °F 30.8 °F 10.4 °F 38% 30.27 in 10.0 mi SE 3.5 mph - N/A   Clear
4:52 PM 33.8 °F 27.7 °F 10.4 °F 38% 30.27 in 10.0 mi SSE 6.9 mph - N/A   Clear
5:13 PM 30.2 °F 22.6 °F 12.2 °F 47% 30.27 in 10.0 mi SSE 8.1 mph - N/A   Clear
5:33 PM 30.2 °F 24.3 °F 12.2 °F 47% 30.28 in 10.0 mi SSE 5.8 mph - N/A   Clear
5:52 PM 28.4 °F 19.7 °F 12.2 °F 51% 30.28 in 10.0 mi SSE 9.2 mph - N/A   Clear
7:33 PM 21.2 °F 14.9 °F 12.2 °F 68% 30.28 in 10.0 mi SE 4.6 mph - N/A   Clear
7:53 PM 21.2 °F 10.9 °F 12.2 °F 68% 30.28 in 10.0 mi SE 9.2 mph - N/A   Clear
8:12 PM 19.4 °F 7.9 °F 12.2 °F 74% 30.28 in 10.0 mi SE 10.4 mph - N/A   Clear
8:33 PM 19.4 °F 9.5 °F 10.4 °F 68% 30.29 in 10.0 mi SE 8.1 mph - N/A   Clear
8:52 PM 17.6 °F 6.4 °F 10.4 °F 73% 30.29 in 10.0 mi SE 9.2 mph - N/A   Scattered Clouds
9:13 PM 15.8 °F 7.2 °F 8.6 °F 73% 30.29 in 10.0 mi SE 5.8 mph - N/A   Clear
9:32 PM 15.8 °F 6.1 °F 10.4 °F 79% 30.28 in 10.0 mi ESE 6.9 mph - N/A   Scattered Clouds
9:53 PM 15.8 °F 6.1 °F 10.4 °F 79% 30.28 in 10.0 mi SE 6.9 mph - N/A   Scattered Clouds
10:12 PM 15.8 °F 6.1 °F 10.4 °F 79% 30.28 in 10.0 mi SE 6.9 mph - N/A   Clear
10:33 PM 14.0 °F 6.5 °F 10.4 °F 86% 30.28 in 10.0 mi SE 4.6 mph - N/A   Mostly Cloudy
10:53 PM 15.8 °F 7.2 °F 12.2 °F 86% 30.28 in 10.0 mi SE 5.8 mph - N/A   Mostly Cloudy
11:12 PM 15.8 °F 10.2 °F 12.2 °F 86% 30.28 in 10.0 mi SE 3.5 mph - N/A   Scattered Clouds
11:33 PM 15.8 °F 8.6 °F 12.2 °F 86% 30.28 in 10.0 mi SE 4.6 mph - N/A   Scattered Clouds
11:53 PM 15.8 °F - 12.2 °F 86% 30.29 in 10.0 mi Calm Calm - N/A   Mostly Cloudy